GW1515 Weather Reports


Display with metric or nautical units.
time (UTC)temp
F
wind
direction
speed
MPH
gust
MPH
rain 1hr
in
rain 24hr
in
rain mn
in
humidity
%
barometer
mb
20260504024258 58 200 3.0 8.0 0.00 0.12 0.12 65 1007.0
20260504023755 59 209 4.0 5.0 0.00 0.12 0.12 64 1007.1
20260504023252 59 183 4.0 6.0 0.00 0.12 0.12 64 1006.9
20260504022748 59 204 3.0 5.0 0.00 0.12 0.12 63 1007.0
20260504022244 60 186 3.0 5.0 0.00 0.12 0.12 62 1007.0
20260504021741 60 198 3.0 8.0 0.00 0.12 0.12 62 1007.1
20260504021238 60 221 3.0 8.0 0.00 0.12 0.12 61 1006.6
20260504020735 60 207 5.0 9.0 0.00 0.12 0.12 60 1006.6
20260504020232 61 213 7.0 10.0 0.00 0.12 0.12 60 1006.9
20260504015728 61 205 4.0 8.0 0.00 0.12 0.12 59 1006.7
20260504015225 61 215 5.0 9.0 0.00 0.12 0.12 59 1006.7
20260504014720 62 218 5.0 11.0 0.00 0.12 0.12 57 1006.4
20260504014217 62 182 5.0 9.0 0.00 0.12 0.12 57 1006.6
20260504013715 62 206 5.0 11.0 0.00 0.12 0.12 56 1006.3
20260504013212 63 214 4.0 12.0 0.00 0.12 0.12 56 1006.5
20260504012709 63 208 5.0 11.0 0.00 0.12 0.12 55 1006.6
20260504012207 63 201 5.0 9.0 0.00 0.12 0.12 55 1006.4
20260504011703 63 210 6.0 10.0 0.00 0.12 0.12 54 1006.4
20260504011200 63 205 7.0 16.0 0.00 0.12 0.12 54 1006.4
20260504010656 63 221 3.0 15.0 0.00 0.12 0.12 54 1006.3
20260504010152 63 215 5.0 9.0 0.00 0.12 0.12 55 1006.5
20260504005649 63 221 3.0 11.0 0.00 0.12 0.12 54 1006.2
20260504005145 64 232 6.0 10.0 0.00 0.12 0.12 53 1006.3
20260504004644 64 234 4.0 12.0 0.00 0.12 0.12 53 1006.4
20260504004140 64 224 3.0 7.0 0.00 0.12 0.12 53 1006.4
20260504003637 64 205 4.0 9.0 0.00 0.12 0.12 52 1006.5
20260504003133 64 215 5.0 13.0 0.00 0.12 0.12 52 1006.6
20260504002630 65 208 7.0 13.0 0.00 0.12 0.12 51 1006.4
20260504002128 65 213 11.0 17.0 0.00 0.12 0.12 50 1006.4
20260504001626 65 228 7.0 16.0 0.00 0.12 0.12 50 1006.5
20260504001121 66 234 7.0 17.0 0.00 0.12 0.12 49 1006.5
20260504000619 66 216 15.0 17.0 0.00 0.12 0.12 48 1006.5
20260504000116 66 221 4.0 11.0 0.00 0.12 0.12 48 1006.4
20260503235614 67 210 9.0 15.0 0.00 0.12 0.12 48 1006.5
20260503235111 67 208 4.0 18.0 0.00 0.12 0.12 48 1006.6
20260503234609 67 216 5.0 25.0 0.00 0.12 0.12 47 1006.6
20260503234106 67 214 4.0 12.0 0.00 0.12 0.12 46 1006.2
20260503233603 68 242 3.0 8.0 0.00 0.12 0.12 47 1006.5
20260503233059 68 209 3.0 9.0 0.00 0.12 0.12 47 1006.5
20260503232556 68 200 2.0 9.0 0.00 0.12 0.12 47 1006.5
20260503232053 68 218 5.0 16.0 0.00 0.12 0.12 46 1006.3
20260503231551 68 224 4.0 21.0 0.00 0.12 0.12 46 1006.4
20260503231048 68 222 10.0 19.0 0.00 0.12 0.12 45 1006.5
20260503230544 68 222 5.0 11.0 0.00 0.12 0.12 45 1006.5
20260503230042 68 247 14.0 14.0 0.00 0.12 0.12 45 1006.9
20260503225538 67 244 9.0 16.0 0.00 0.12 0.12 45 1006.8
20260503225033 67 222 3.0 15.0 0.00 0.12 0.12 46 1006.7
20260503224531 66 148 3.0 12.0 0.00 0.12 0.12 47 1006.8
20260503224029 66 213 15.0 18.0 0.00 0.12 0.12 46 1006.5
20260503223527 66 183 10.0 17.0 0.00 0.12 0.12 46 1007.0
20260503223022 66 216 4.0 17.0 0.00 0.12 0.12 47 1007.0
20260503222520 67 154 5.0 12.0 0.00 0.12 0.12 46 1007.0
20260503222018 65 201 5.0 13.0 0.00 0.12 0.12 47 1007.1
20260503221516 65 201 8.0 18.0 0.00 0.12 0.12 46 1007.3
20260503221013 65 202 4.0 21.0 0.00 0.12 0.12 46 1007.1
20260503220509 66 210 8.0 18.0 0.00 0.12 0.12 45 1007.2
20260503220006 65 219 8.0 15.0 0.00 0.12 0.12 46 1007.1
20260503215503 65 213 8.0 19.0 0.00 0.12 0.12 46 1007.1
20260503215000 65 200 10.0 15.0 0.00 0.12 0.12 46 1007.2
20260503214458 66 219 7.0 18.0 0.00 0.12 0.12 46 1007.4
20260503213955 65 209 15.0 19.0 0.00 0.12 0.12 45 1007.6
20260503213453 64 201 5.0 14.0 0.00 0.12 0.12 47 1007.3
20260503212949 64 209 6.0 16.0 0.00 0.12 0.12 48 1007.8
20260503212447 64 203 10.0 19.0 0.00 0.12 0.12 46 1007.7
20260503211944 64 197 8.0 29.0 0.00 0.12 0.12 46 1007.9
20260503211441 65 182 5.0 27.0 0.00 0.12 0.12 45 1007.9
20260503210937 64 165 7.0 22.0 0.00 0.12 0.12 45 1007.8
20260503210433 65 214 7.0 24.0 0.00 0.12 0.12 45 1008.2
20260503205928 65 229 5.0 14.0 0.00 0.12 0.12 45 1008.1
20260503205426 64 234 7.0 18.0 0.00 0.12 0.12 44 1008.6
20260503204922 64 216 12.0 27.0 0.00 0.12 0.12 44 1008.6
20260503204419 65 236 7.0 21.0 0.00 0.12 0.12 43 1008.4
20260503203916 66 216 21.0 24.0 0.00 0.12 0.12 43 1008.7
20260503203413 65 201 11.0 20.0 0.00 0.12 0.12 42 1008.5
20260503202910 65 205 7.0 31.0 0.00 0.12 0.12 42 1008.8
20260503202409 64 232 6.0 19.0 0.00 0.12 0.12 45 1008.8
20260503201907 63 217 9.0 24.0 0.00 0.12 0.12 46 1008.9
20260503201403 64 203 14.0 20.0 0.00 0.12 0.12 45 1008.8
20260503200901 65 200 6.0 17.0 0.00 0.12 0.12 46 1009.0
20260503200356 64 200 24.0 33.0 0.00 0.12 0.12 44 1009.0
20260503195854 64 198 23.0 37.0 0.00 0.12 0.12 44 1008.8
20260503195350 64 206 14.0 34.0 0.00 0.12 0.12 44 1009.0
20260503194848 64 193 14.0 35.0 0.00 0.12 0.12 43 1009.1
20260503194343 64 203 7.0 30.0 0.00 0.12 0.12 45 1009.0
20260503193840 64 225 5.0 22.0 0.00 0.12 0.12 46 1009.1
20260503193336 64 176 15.0 20.0 0.00 0.12 0.12 48 1009.2
20260503192832 63 176 8.0 15.0 0.00 0.12 0.12 49 1009.1
20260503192327 62 205 9.0 29.0 0.00 0.12 0.12 50 1009.4
20260503191824 63 211 14.0 19.0 0.00 0.12 0.12 50 1009.5
20260503191321 62 208 16.0 27.0 0.00 0.12 0.12 51 1009.7
20260503190817 62 205 18.0 22.0 0.00 0.12 0.12 52 1009.8
20260503190314 61 178 5.0 27.0 0.00 0.12 0.12 57 1009.9
20260503185812 61 179 9.0 21.0 0.00 0.12 0.12 54 1010.0
20260503185307 60 231 5.0 15.0 0.00 0.12 0.12 63 1010.1
20260503184802 60 197 8.0 17.0 0.00 0.12 0.12 61 1010.4
20260503184259 59 161 9.0 15.0 0.00 0.12 0.12 65 1010.3
20260503183754 59 175 10.0 13.0 0.00 0.12 0.12 65 1010.5
20260503183252 57 164 13.0 17.0 0.00 0.12 0.12 67 1010.3
20260503182749 56 189 4.0 15.0 0.00 0.12 0.12 70 1010.7
20260503182248 55 179 8.0 17.0 0.00 0.12 0.12 70 1010.3
20260503181745 55 180 4.0 11.0 0.00 0.12 0.12 75 1010.8
20260503181242 53 138 5.0 13.0 0.00 0.12 0.12 76 1011.0
20260503180738 52 174 5.0 9.0 0.00 0.12 0.12 77 1011.5
20260503180236 51 162 2.0 11.0 0.00 0.12 0.12 79 1011.2
20260503175732 50 162 5.0 10.0 0.00 0.12 0.12 81 1011.6
20260503175231 50 150 6.0 11.0 0.00 0.12 0.12 81 1011.6
20260503174726 50 149 5.0 10.0 0.05 0.12 0.12 81 1011.9
20260503174224 50 122 5.0 8.0 0.09 0.12 0.12 82 1012.3
20260503173719 49 182 4.0 9.0 0.07 0.11 0.11 85 1012.7
20260503173215 49 203 3.0 7.0 0.05 0.10 0.10 84 1013.0
20260503172712 49 206 14.0 14.0 0.00 0.09 0.09 87 1013.3
20260503172209 49 220 3.0 9.0 0.02 0.09 0.09 86 1013.1
20260503171705 49 153 4.0 9.0 0.02 0.09 0.09 88 1013.5
20260503171203 49 232 7.0 9.0 0.02 0.09 0.09 89 1013.5
20260503170700 49 187 4.0 8.0 0.00 0.09 0.09 88 1013.5
20260503170157 49 209 6.0 7.0 0.02 0.09 0.09 89 1013.4
20260503160118 48 169 8.0 11.0 0.14 0.04 0.04 87 1014.6
20260503150548 53 239 10.0 16.0 0.00 0.00 0.00 61 1014.2
20260503130938 49 244 9.0 19.0 0.00 0.00 0.00 63 1014.9
20260503130436 49 211 9.0 13.0 0.00 0.00 0.00 64 1014.8
20260503110823 46 215 9.0 15.0 0.00 0.00 0.00 64 1014.6
20260503110320 46 208 5.0 16.0 0.00 0.00 0.00 64 1014.6
20260503100246 44 248 3.0 11.0 0.00 0.00 0.00 66 1014.7
20260503090206 44 217 6.0 9.0 0.00 0.00 0.00 65 1015.0
20260503081138 44 194 4.0 10.0 0.00 0.00 0.00 63 1015.2
20260503080634 44 208 3.0 9.0 0.00 0.00 0.00 64 1015.1
20260503080131 44 245 4.0 10.0 0.00 0.00 0.00 63 1015.3
20260503072608 44 214 4.0 7.0 0.00 0.00 0.00 62 1015.2
20260503072105 44 204 7.0 9.0 0.00 0.00 0.00 62 1015.3
20260503071602 44 205 4.0 9.0 0.00 0.00 0.00 62 1015.2
20260503071059 44 193 5.0 9.0 0.00 0.00 0.00 62 1015.5
20260503070555 44 210 3.0 9.0 0.00 0.00 0.00 62 1015.4
20260503055015 45 192 4.0 11.0 0.00 0.00 0.00 60 1016.0
20260503054511 45 213 6.0 10.0 0.00 0.00 0.00 60 1016.2
20260503054008 45 218 3.0 7.0 0.00 0.00 0.00 60 1016.0
20260503053506 45 225 3.0 6.0 0.00 0.00 0.00 60 1016.1
20260503053004 45 209 4.0 9.0 0.00 0.00 0.00 60 1016.3
20260503052500 45 220 3.0 8.0 0.00 0.00 0.00 60 1016.2
20260503051956 45 238 4.0 8.0 0.00 0.00 0.00 60 1016.4
20260503051452 45 200 3.0 6.0 0.00 0.00 0.00 60 1016.2
20260503050950 45 204 8.0 11.0 0.00 0.00 0.00 60 1016.3
20260503050445 45 219 2.0 8.0 0.00 0.00 0.00 61 1016.3
20260503045943 45 215 2.0 6.0 0.00 0.00 0.00 61 1016.4
20260503045441 45 216 3.0 7.0 0.00 0.00 0.00 61 1016.2
20260503044937 45 202 4.0 6.0 0.00 0.00 0.00 61 1016.5
20260503044434 45 188 2.0 5.0 0.00 0.00 0.00 61 1016.5
20260503043932 45 218 3.0 6.0 0.00 0.00 0.00 61 1016.4
20260503043428 45 202 4.0 5.0 0.00 0.00 0.00 60 1016.5
20260503042924 46 179 3.0 6.0 0.00 0.00 0.00 59 1016.4
20260503042421 46 183 1.0 5.0 0.00 0.00 0.00 59 1016.8
20260503041918 46 199 4.0 5.0 0.00 0.00 0.00 58 1016.6
20260503041415 46 201 4.0 5.0 0.00 0.00 0.00 59 1016.5
20260503040912 46 190 3.0 6.0 0.00 0.00 0.00 58 1016.6
20260503040409 46 216 3.0 4.0 0.00 0.00 0.00 58 1016.5
20260503035906 46 218 4.0 6.0 0.00 0.00 0.00 58 1016.5
20260503035403 46 172 2.0 7.0 0.00 0.00 0.00 58 1016.6
20260503034900 46 210 3.0 5.0 0.00 0.00 0.00 58 1016.6
20260503034358 46 204 3.0 5.0 0.00 0.00 0.00 58 1016.5
20260503033855 46 208 3.0 5.0 0.00 0.00 0.00 58 1016.7
20260503033352 46 201 2.0 6.0 0.00 0.00 0.00 58 1016.6
20260503032850 46 193 3.0 5.0 0.00 0.00 0.00 57 1016.7
20260503032349 46 203 3.0 5.0 0.00 0.00 0.00 57 1016.6
20260503031846 46 165 2.0 4.0 0.00 0.00 0.00 57 1016.6
20260503031344 46 162 2.0 5.0 0.00 0.00 0.00 57 1016.6
20260503030840 47 191 3.0 4.0 0.00 0.00 0.00 56 1016.6
20260503030336 47 198 2.0 4.0 0.00 0.00 0.00 55 1016.8
20260503025833 47 187 2.0 5.0 0.00 0.00 0.00 56 1016.7
20260503025330 47 193 1.0 3.0 0.00 0.00 0.00 55 1016.6
20260503024827 47 199 2.0 4.0 0.00 0.00 0.00 55 1016.9